�������l�o���
Date,Time,MP-1(��Sv/h),MP-2(��Sv/h),MP-3(��Sv/h),MP-4(��Sv/h),MP-5(��Sv/h),MP-6(��Sv/h),MP-7(��Sv/h),MP-8(��Sv/h),����,����(m/s),���J
2023/03/13,00:00,0.581,0.849,0.510,1.071,0.748,0.328,0.589,0.562,��쓌,7.8,�L
2023/03/13,00:10,0.580,0.850,0.511,1.073,0.749,0.329,0.591,0.561,��쓌,7.4,��
2023/03/13,00:20,0.582,0.850,0.510,1.073,0.750,0.329,0.589,0.560,��쓌,8.0,��
2023/03/13,00:30,0.583,0.847,0.511,1.073,0.748,0.329,0.591,0.561,��,7.6,��
2023/03/13,00:40,0.580,0.848,0.510,1.072,0.749,0.329,0.592,0.559,��,8.2,��
2023/03/13,00:50,0.580,0.847,0.510,1.072,0.746,0.329,0.592,0.559,��,6.8,��
2023/03/13,01:00,0.582,0.848,0.508,1.071,0.748,0.328,0.591,0.560,��,5.8,��
2023/03/13,01:10,0.582,0.850,0.510,1.073,0.748,0.328,0.590,0.560,��,5.5,�L
2023/03/13,01:20,0.582,0.848,0.509,1.072,0.748,0.330,0.590,0.559,��,7.1,�L
2023/03/13,01:30,0.582,0.848,0.510,1.073,0.749,0.328,0.591,0.560,��쓌,8.0,�L
2023/03/13,01:40,0.581,0.849,0.509,1.072,0.749,0.329,0.592,0.561,��,8.8,�L
2023/03/13,01:50,0.580,0.848,0.509,1.071,0.747,0.329,0.591,0.560,��쓌,9.3,�L
2023/03/13,02:00,0.582,0.848,0.510,1.071,0.749,0.329,0.590,0.562,��쓌,11.9,�L
2023/03/13,02:10,0.582,0.849,0.510,1.074,0.749,0.327,0.591,0.562,��,9.2,�L
2023/03/13,02:20,0.582,0.849,0.510,1.073,0.748,0.329,0.590,0.560,��,9.3,�L
2023/03/13,02:30,0.582,0.845,0.512,1.074,0.745,0.330,0.591,0.560,��,9.2,�L
2023/03/13,02:40,0.580,0.844,0.509,1.071,0.747,0.328,0.590,0.561,��,9.8,�L
2023/03/13,02:50,0.579,0.844,0.511,1.071,0.745,0.330,0.590,0.559,��,9.7,�L
2023/03/13,03:00,0.579,0.847,0.510,1.071,0.745,0.328,0.588,0.560,��,9.1,�L
2023/03/13,03:10,0.581,0.845,0.510,1.069,0.746,0.328,0.589,0.560,��,9.6,�L
2023/03/13,03:20,0.582,0.846,0.510,1.070,0.747,0.328,0.590,0.559,��,8.0,�L
2023/03/13,03:30,0.580,0.845,0.510,1.073,0.746,0.329,0.589,0.561,��,8.6,�L
2023/03/13,03:40,0.581,0.843,0.509,1.072,0.746,0.330,0.588,0.560,��,9.4,�L
2023/03/13,03:50,0.580,0.844,0.511,1.070,0.747,0.329,0.588,0.560,��,8.6,�L
2023/03/13,04:00,0.580,0.842,0.509,1.070,0.742,0.328,0.590,0.560,��,9.1,�L
2023/03/13,04:10,0.578,0.842,0.508,1.071,0.741,0.329,0.587,0.558,��,9.9,�L
2023/03/13,04:20,0.580,0.839,0.507,1.067,0.738,0.329,0.588,0.558,��,9.7,�L
2023/03/13,04:30,0.578,0.837,0.507,1.070,0.739,0.328,0.587,0.559,��,10.2,�L
2023/03/13,04:40,0.576,0.839,0.508,1.066,0.739,0.328,0.588,0.558,��쓌,10.2,�L
2023/03/13,04:50,0.578,0.838,0.507,1.067,0.739,0.329,0.585,0.558,��,9.6,��
2023/03/13,05:00,0.578,0.837,0.506,1.068,0.739,0.328,0.588,0.557,��,7.8,��
2023/03/13,05:10,0.578,0.838,0.506,1.066,0.738,0.329,0.588,0.557,��쓌,8.7,��
2023/03/13,05:20,0.578,0.837,0.508,1.065,0.737,0.327,0.587,0.558,��,10.2,��
2023/03/13,05:30,0.576,0.836,0.507,1.066,0.739,0.328,0.587,0.556,��,10.3,�L
2023/03/13,05:40,0.578,0.840,0.505,1.066,0.739,0.327,0.587,0.560,��,10.3,�L
2023/03/13,05:50,0.576,0.838,0.507,1.067,0.738,0.327,0.589,0.560,��,11.4,�L
2023/03/13,06:00,0.575,0.839,0.505,1.065,0.739,0.328,0.587,0.557,��,11.0,�L
2023/03/13,06:10,0.577,0.836,0.505,1.067,0.738,0.326,0.588,0.557,��,9.2,�L
2023/03/13,06:20,0.576,0.837,0.506,1.067,0.738,0.328,0.589,0.558,��,8.9,��
2023/03/13,06:30,0.577,0.838,0.505,1.066,0.738,0.328,0.586,0.560,��,9.5,��
2023/03/13,06:40,0.575,0.839,0.505,1.066,0.739,0.327,0.588,0.557,��,9.0,��
2023/03/13,06:50,0.577,0.838,0.506,1.066,0.739,0.327,0.588,0.558,��,8.7,�L
2023/03/13,07:00,0.579,0.837,0.507,1.067,0.740,0.327,0.589,0.558,��,8.9,�L
2023/03/13,07:10,0.577,0.836,0.506,1.066,0.738,0.327,0.589,0.556,��,9.5,�L
2023/03/13,07:20,0.577,0.838,0.506,1.067,0.739,0.327,0.589,0.559,��,9.2,��
2023/03/13,07:30,0.578,0.838,0.507,1.070,0.739,0.326,0.588,0.558,��,10.6,��
2023/03/13,07:40,0.576,0.838,0.505,1.066,0.741,0.327,0.587,0.558,��,10.9,�L
2023/03/13,07:50,0.577,0.840,0.507,1.065,0.739,0.326,0.587,0.558,��,12.5,�L
2023/03/13,08:00,0.579,0.839,0.506,1.068,0.740,0.328,0.588,0.557,��,11.3,��
2023/03/13,08:10,0.577,0.839,0.507,1.067,0.739,0.328,0.588,0.560,��,10.3,��
2023/03/13,08:20,0.579,0.838,0.506,1.068,0.741,0.327,0.590,0.558,��,12.5,�L
2023/03/13,08:30,0.578,0.837,0.506,1.070,0.739,0.326,0.588,0.557,��,12.4,��
2023/03/13,08:40,0.578,0.836,0.506,1.070,0.737,0.326,0.588,0.557,��,11.4,��
2023/03/13,08:50,0.576,0.836,0.504,1.067,0.738,0.325,0.587,0.556,��,9.5,��
2023/03/13,09:00,0.578,0.836,0.504,1.069,0.737,0.326,0.589,0.558,��,10.2,��
2023/03/13,09:10,0.578,0.837,0.505,1.067,0.739,0.326,0.588,0.557,��,9.5,��
2023/03/13,09:20,0.577,0.837,0.503,1.069,0.738,0.326,0.589,0.556,��,12.1,��
2023/03/13,09:30,0.578,0.837,0.497,1.070,0.739,0.326,0.588,0.556,��쓌,10.0,��
2023/03/13,09:40,0.577,0.836,0.504,1.068,0.737,0.325,0.589,0.556,��쓌,9.2,��
2023/03/13,09:50,0.577,0.836,0.503,1.068,0.738,0.327,0.590,0.557,��,8.0,��
2023/03/13,10:00,0.577,0.836,0.507,1.069,0.737,0.327,0.589,0.556,��,9.0,��
2023/03/13,10:10,0.577,0.837,0.505,1.069,0.737,0.325,0.589,0.557,��쓌,9.9,��
2023/03/13,10:20,0.578,0.838,0.507,1.070,0.737,0.325,0.588,0.556,��,8.4,��
2023/03/13,10:30,0.576,0.836,0.506,1.071,0.738,0.327,0.592,0.557,��,13.3,�L
2023/03/13,10:40,0.577,0.835,0.506,1.068,0.740,0.326,0.590,0.555,��쓌,12.2,�L
2023/03/13,10:50,0.577,0.835,0.505,1.069,0.739,0.326,0.589,0.555,��쓌,10.2,�L
2023/03/13,11:00,0.578,0.837,0.506,1.068,0.740,0.327,0.591,0.556,��쓌,15.2,�L
2023/03/13,11:10,0.579,0.838,0.507,1.068,0.740,0.327,0.591,0.558,��쓌,13.0,��
2023/03/13,11:20,0.578,0.837,0.508,1.068,0.738,0.325,0.590,0.556,��쓌,13.8,�L
2023/03/13,11:30,0.578,0.838,0.506,1.069,0.739,0.327,0.590,0.557,��쓌,11.8,��
2023/03/13,11:40,0.576,0.837,0.507,1.070,0.741,0.326,0.589,0.554,��,12.7,�L
2023/03/13,11:50,0.578,0.839,0.506,1.070,0.741,0.326,0.588,0.555,��쓌,12.0,��
2023/03/13,12:00,0.578,0.839,0.507,1.066,0.739,0.326,0.590,0.556,��,13.8,��
2023/03/13,12:10,0.578,0.839,0.507,1.070,0.740,0.325,0.590,0.556,��,12.0,�L
2023/03/13,12:20,0.579,0.838,0.506,1.069,0.740,0.326,0.590,0.556,��쓌,11.9,�L
2023/03/13,12:30,0.579,0.839,0.507,1.070,0.737,0.327,0.590,0.557,��쓌,12.5,�L
2023/03/13,12:40,0.578,0.840,0.507,1.068,0.739,0.325,0.590,0.555,��쓌,14.1,�L
2023/03/13,12:50,0.579,0.841,0.508,1.069,0.739,0.327,0.591,0.557,��,12.1,�L
2023/03/13,13:00,0.579,0.841,0.507,1.069,0.739,0.327,0.590,0.558,��쓌,13.3,�L
2023/03/13,13:10,0.580,0.839,0.508,1.071,0.738,0.328,0.590,0.557,��,10.3,�L
2023/03/13,13:20,0.576,0.843,0.509,1.069,0.743,0.328,0.590,0.558,��쓌,11.9,�L
2023/03/13,13:30,0.575,0.842,0.510,1.068,0.739,0.328,0.590,0.558,��,11.0,�L
2023/03/13,13:40,0.577,0.839,0.508,1.068,0.739,0.327,0.589,0.556,��쐼,8.9,�L
2023/03/13,13:50,0.575,0.834,0.507,1.065,0.735,0.329,0.587,0.555,���k��,8.5,�L
2023/03/13,14:00,0.567,0.820,0.501,1.057,0.724,0.326,0.582,0.552,�쐼,3.9,�L
2023/03/13,14:10,0.558,0.804,0.496,1.039,0.712,0.322,0.580,0.549,���쐼,5.0,�L
2023/03/13,14:20,0.557,0.798,0.493,1.026,0.704,0.321,0.578,0.548,���k��,8.9,�L
2023/03/13,14:30,0.558,0.795,0.492,1.022,0.704,0.321,0.576,0.550,��,9.2,�L
2023/03/13,14:40,0.557,0.798,0.491,1.021,0.704,0.324,0.576,0.548,���k��,8.6,�L
2023/03/13,14:50,0.559,0.798,0.491,1.021,0.705,0.322,0.577,0.548,���k��,7.4,�L
2023/03/13,15:00,0.559,0.798,0.492,1.021,0.706,0.321,0.575,0.547,���k��,7.9,�L
2023/03/13,15:10,0.558,0.801,0.494,1.024,0.706,0.321,0.574,0.548,�k��,1.1,�L
2023/03/13,15:20,0.558,0.801,0.491,1.022,0.708,0.322,0.574,0.548,���k��,4.5,�L
2023/03/13,15:30,0.559,0.802,0.495,1.023,0.707,0.323,0.574,0.550,���k��,4.3,�L
2023/03/13,15:40,0.558,0.803,0.494,1.021,0.708,0.323,0.574,0.551,���k��,4.8,�L
2023/03/13,15:50,0.558,0.804,0.493,1.022,0.708,0.322,0.575,0.551,���k��,6.9,��
2023/03/13,16:00,0.558,0.803,0.492,1.024,0.707,0.322,0.575,0.551,���k��,6.7,�L
2023/03/13,16:10,0.557,0.804,0.493,1.021,0.706,0.322,0.575,0.552,���k��,8.9,��
2023/03/13,16:20,0.556,0.802,0.490,1.025,0.708,0.320,0.577,0.552,���k��,8.1,�L
2023/03/13,16:30,0.555,0.803,0.490,1.023,0.709,0.321,0.576,0.550,���k��,9.3,��
2023/03/13,16:40,0.556,0.804,0.489,1.021,0.707,0.319,0.577,0.550,���k��,6.1,��
2023/03/13,16:50,0.555,0.803,0.489,1.021,0.707,0.320,0.577,0.550,�k��,5.4,��
2023/03/13,17:00,0.556,0.801,0.490,1.020,0.707,0.318,0.576,0.551,�k��,8.2,��
2023/03/13,17:10,0.555,0.803,0.488,1.020,0.708,0.320,0.577,0.549,�k��,8.1,��
2023/03/13,17:20,0.556,0.802,0.489,1.020,0.706,0.318,0.577,0.550,�k��,7.0,��
2023/03/13,17:30,0.554,0.805,0.491,1.022,0.708,0.319,0.577,0.551,�k��,6.8,��
2023/03/13,17:40,0.554,0.801,0.490,1.023,0.707,0.319,0.577,0.550,�k��,5.9,��
2023/03/13,17:50,0.555,0.803,0.489,1.022,0.708,0.317,0.578,0.550,�k��,7.2,��
2023/03/13,18:00,0.556,0.803,0.489,1.022,0.708,0.318,0.578,0.549,�k��,7.4,��
2023/03/13,18:10,0.556,0.805,0.489,1.023,0.705,0.318,0.578,0.551,�k��,5.4,��
2023/03/13,18:20,0.554,0.803,0.489,1.020,0.706,0.318,0.579,0.551,�k�k��,5.5,��
2023/03/13,18:30,0.554,0.804,0.489,1.021,0.707,0.318,0.577,0.552,�k�k��,6.1,��
2023/03/13,18:40,0.554,0.803,0.489,1.022,0.709,0.318,0.577,0.551,�k�k��,5.8,��
2023/03/13,18:50,0.554,0.805,0.490,1.023,0.707,0.318,0.579,0.550,�k�k��,6.9,��
2023/03/13,19:00,0.556,0.803,0.490,1.022,0.707,0.317,0.578,0.552,�k�k��,7.5,��
2023/03/13,19:10,0.554,0.802,0.489,1.022,0.707,0.318,0.578,0.551,�k�k��,6.5,��
2023/03/13,19:20,0.555,0.804,0.489,1.024,0.707,0.319,0.577,0.550,�k�k��,8.2,��
2023/03/13,19:30,0.556,0.804,0.489,1.023,0.709,0.318,0.579,0.552,�k�k��,6.9,��
2023/03/13,19:40,0.555,0.804,0.489,1.021,0.708,0.317,0.579,0.549,�k�k��,7.3,��
2023/03/13,19:50,0.556,0.804,0.489,1.024,0.707,0.318,0.577,0.550,�k�k��,8.5,��
2023/03/13,20:00,0.553,0.804,0.488,1.024,0.708,0.319,0.580,0.550,�k�k��,8.7,��
2023/03/13,20:10,0.554,0.805,0.489,1.024,0.709,0.317,0.580,0.549,�k�k��,8.8,��
2023/03/13,20:20,0.555,0.804,0.489,1.022,0.709,0.319,0.578,0.551,�k�k��,6.8,��
2023/03/13,20:30,0.556,0.804,0.489,1.024,0.709,0.317,0.576,0.550,�k�k��,8.2,��
2023/03/13,20:40,0.555,0.804,0.488,1.025,0.708,0.318,0.578,0.550,�k�k��,8.6,��
2023/03/13,20:50,0.553,0.805,0.488,1.022,0.709,0.317,0.578,0.549,�k��,9.6,��
2023/03/13,21:00,0.556,0.804,0.489,1.025,0.710,0.319,0.579,0.550,�k�k��,9.3,��
2023/03/13,21:10,0.556,0.804,0.489,1.025,0.710,0.317,0.579,0.551,�k�k��,9.3,��
2023/03/13,21:20,0.555,0.807,0.488,1.025,0.709,0.319,0.578,0.550,�k�k��,7.6,��
2023/03/13,21:30,0.555,0.805,0.491,1.025,0.710,0.318,0.577,0.549,�k�k��,7.0,��
2023/03/13,21:40,0.556,0.806,0.488,1.025,0.710,0.317,0.578,0.549,�k�k��,7.0,��
2023/03/13,21:50,0.556,0.806,0.489,1.028,0.710,0.317,0.580,0.550,�k�k��,7.9,�L
2023/03/13,22:00,0.555,0.805,0.490,1.027,0.710,0.319,0.578,0.549,�k�k��,6.2,��
2023/03/13,22:10,0.555,0.807,0.489,1.024,0.711,0.318,0.580,0.549,�k�k��,5.2,��
2023/03/13,22:20,0.557,0.805,0.488,1.026,0.710,0.317,0.578,0.550,�k�k��,4.8,��
2023/03/13,22:30,0.555,0.805,0.489,1.025,0.711,0.319,0.577,0.550,�k�k��,5.1,��
2023/03/13,22:40,0.555,0.805,0.488,1.026,0.710,0.317,0.578,0.550,�k�k��,5.6,��
2023/03/13,22:50,0.555,0.805,0.491,1.027,0.710,0.319,0.578,0.550,�k�k��,6.5,��
2023/03/13,23:00,0.555,0.805,0.488,1.027,0.711,0.319,0.579,0.548,�k�k��,6.7,��
2023/03/13,23:10,0.554,0.804,0.489,1.024,0.711,0.317,0.577,0.550,�k�k��,7.2,��
2023/03/13,23:20,0.555,0.805,0.490,1.025,0.708,0.317,0.578,0.547,�k�k��,7.7,��
2023/03/13,23:30,0.555,0.806,0.491,1.027,0.710,0.317,0.578,0.549,�k�k��,7.5,��
2023/03/13,23:40,0.556,0.806,0.489,1.024,0.711,0.319,0.577,0.550,�k�k��,8.4,��
2023/03/13,23:50,0.555,0.809,0.489,1.027,0.709,0.317,0.579,0.552,�k,6.1,��
